DECAYED

METEOR 2-7 DEB, 36875 (Decayed)

Orbit data source: Space-Track

METEOR 2-7 DEB, 36875 was space debris in LEO originally from a launch on Thu, 14 May 1981 UTC launched from the Plesetsk Missile And Space Complex (PKMTR). Debris objects in space refer to the collection of defunct objects orbiting the Earth. Examples of debris include non-operational satellites, rocket bodies, and fragments generated from explosions, collisions, or faulty payload assembly.

Not visible in the next 10 days
Identifier
36875, 1981-043N
Orbit
Decayed
Last TLE update
1 year ago
Origin
Manufacturer
Unknown
Mission
Decayed spacecraft
Bus & Motor
Unknown
Mass
Unknown
Launch date (UTC)
1981-05-14 (44 years ago)
Launch vehicle
Unknown
Launch site
Plesetsk Missile And Space Complex (PKMTR)
Object type
Payload
Rocket body
Debris
Shape & HBR
Unknown
Radar Cross Section
Small (<0.1 m²)

Expand to show TLE details & history

TLE from 1 year ago
0 METEOR 2-7 DEB
1 36875U 81043N   24131.76546284  .00075839  00000-0  88281-2 0  9999
2 36875  81.2364 147.0032 0005462 117.9200 242.2566 14.84868314 63664
Epoch: 2024-05-10T18:22Z
TLE epoch observation values (Epoch: 2024-05-10T18:22:15.989Z)
Latitude
0.00003°
Longitude
2.39532°
Altitude
618.78 km
Speed
7.549 km/s
True Right ascension
09h 48m 00s
True Declination
0° 00' 00"
Sunlit
Object was in daylight at epoch
Visualization orbit readout
Visualization observer readout
Orbital elements
Apogee altitude
614.892 km
Perigee altitude
607.257 km
Semi-major axis
6,989.211 km
Eccentricity
0.00055
Inclination
81.2364°
RAAN
147.0032°
Arg. of periapsis
117.92°
True anomaly
Unknown
Mean anomaly
242.2566°
Eccentric anomaly
Unknown
Mean motion
3.7145 °/min
Orbital period
96.92 mins
BSTAR
0.0088281
Loading maneuver chart data...
Loading SW <> Apogee altitude chart data...
Loading historical data...
Loading historical data...
Loading historical data...
Loading historical data...
Loading historical data...
Loading historical data...
Loading historical data...

METEOR 2-7 DEB Visibility

Observer location: undefined°, undefined°

This satellite is decayed
Span
Click to sort rows by Start time (UTC) header in descending order
Start Az.
Max El. time (UTC)
Max El. Az.
Max El.
End time (UTC)
End Az.
|